�������l�o���
Date,Time,MP-1(��Sv/h),MP-2(��Sv/h),MP-3(��Sv/h),MP-4(��Sv/h),MP-5(��Sv/h),MP-6(��Sv/h),MP-7(��Sv/h),����,����(m/s),���J
2016/09/07,00:00,0.404,0.244,0.427,0.392,0.366,0.200,0.171,�k,6.8,��
2016/09/07,00:10,0.404,0.245,0.421,0.393,0.369,0.199,0.171,�k,7.5,��
2016/09/07,00:20,0.401,0.243,0.429,0.389,0.371,0.198,0.170,�k,5.5,��
2016/09/07,00:30,0.398,0.241,0.430,0.387,0.369,0.199,0.168,�k�k��,3.5,��
2016/09/07,00:40,0.402,0.244,0.425,0.392,0.366,0.199,0.171,�k�k��,4.2,��
2016/09/07,00:50,0.404,0.244,0.423,0.394,0.368,0.200,0.170,�k�k��,4.3,��
2016/09/07,01:00,0.402,0.243,0.426,0.391,0.372,0.199,0.170,�k,4.4,��
2016/09/07,01:10,0.398,0.243,0.430,0.387,0.369,0.197,0.169,�k,4.7,��
2016/09/07,01:20,0.402,0.245,0.426,0.391,0.367,0.199,0.171,�k�k��,2.2,��
2016/09/07,01:30,0.404,0.244,0.423,0.393,0.369,0.199,0.170,�k�k��,5.7,��
2016/09/07,01:40,0.402,0.242,0.428,0.390,0.370,0.199,0.169,�k,6.6,��
2016/09/07,01:50,0.398,0.242,0.429,0.388,0.368,0.198,0.170,�k,4.4,��
2016/09/07,02:00,0.402,0.243,0.425,0.394,0.367,0.199,0.170,�k,5.3,��
2016/09/07,02:10,0.405,0.242,0.422,0.391,0.369,0.198,0.170,�k,4.4,��
2016/09/07,02:20,0.402,0.241,0.428,0.390,0.371,0.198,0.169,�k,4.7,��
2016/09/07,02:30,0.399,0.244,0.428,0.388,0.367,0.199,0.171,�k,5.0,��
2016/09/07,02:40,0.401,0.245,0.427,0.392,0.365,0.200,0.171,�k,3.1,��
2016/09/07,02:50,0.405,0.243,0.424,0.391,0.369,0.199,0.170,�k,2.8,��
2016/09/07,03:00,0.401,0.242,0.429,0.388,0.371,0.197,0.170,�k,3.3,��
2016/09/07,03:10,0.398,0.246,0.428,0.390,0.369,0.199,0.172,�k,2.9,��
2016/09/07,03:20,0.402,0.246,0.426,0.394,0.367,0.200,0.171,�k,2.3,��
2016/09/07,03:30,0.405,0.243,0.424,0.393,0.373,0.200,0.169,�k�k��,4.9,��
2016/09/07,03:40,0.402,0.243,0.431,0.390,0.371,0.200,0.172,�k�k��,6.9,��
2016/09/07,03:50,0.400,0.246,0.429,0.393,0.367,0.200,0.172,�k�k��,8.1,��
2016/09/07,04:00,0.403,0.244,0.427,0.393,0.369,0.198,0.170,�k,8.3,��
2016/09/07,04:10,0.406,0.242,0.424,0.389,0.373,0.197,0.170,�k,5.6,��
2016/09/07,04:20,0.402,0.245,0.430,0.391,0.368,0.198,0.171,�k�k��,4.6,��
2016/09/07,04:30,0.399,0.244,0.428,0.394,0.365,0.199,0.170,�k��,5.3,��
2016/09/07,04:40,0.404,0.243,0.424,0.393,0.371,0.199,0.170,�k,5.8,��
2016/09/07,04:50,0.403,0.243,0.426,0.389,0.371,0.199,0.170,�k�k��,5.4,��
2016/09/07,05:00,0.400,0.245,0.429,0.394,0.367,0.199,0.171,�k�k��,6.4,��
2016/09/07,05:10,0.402,0.243,0.427,0.393,0.370,0.199,0.170,�k�k��,6.7,��
2016/09/07,05:20,0.405,0.243,0.425,0.390,0.369,0.198,0.170,�k�k��,7.1,��
2016/09/07,05:30,0.402,0.246,0.431,0.391,0.366,0.200,0.172,�k�k��,7.4,��
2016/09/07,05:40,0.401,0.241,0.427,0.392,0.369,0.198,0.170,�k,7.5,�L
2016/09/07,05:50,0.405,0.244,0.426,0.391,0.372,0.199,0.169,�k,6.6,�L
2016/09/07,06:00,0.402,0.244,0.431,0.390,0.369,0.200,0.172,�k,6.7,�L
2016/09/07,06:10,0.402,0.243,0.429,0.394,0.368,0.201,0.171,�k�k��,6.6,�L
2016/09/07,06:20,0.406,0.246,0.426,0.392,0.373,0.201,0.171,�k�k��,6.3,�L
2016/09/07,06:30,0.404,0.248,0.430,0.391,0.369,0.201,0.174,�k�k��,5.6,�L
2016/09/07,06:40,0.405,0.245,0.431,0.394,0.371,0.203,0.173,�k,5.6,�L
2016/09/07,06:50,0.407,0.247,0.426,0.393,0.372,0.200,0.173,�k�k��,5.5,�L
2016/09/07,07:00,0.405,0.247,0.431,0.389,0.369,0.202,0.173,�k�k��,5.9,�L
2016/09/07,07:10,0.403,0.244,0.429,0.395,0.371,0.201,0.172,�k,6.3,�L
2016/09/07,07:20,0.405,0.246,0.425,0.393,0.371,0.201,0.171,�k,6.1,�L
2016/09/07,07:30,0.404,0.248,0.431,0.390,0.367,0.201,0.173,�k,6.7,�L
2016/09/07,07:40,0.402,0.244,0.431,0.395,0.370,0.203,0.173,�k,7.1,�L
2016/09/07,07:50,0.407,0.247,0.428,0.393,0.372,0.203,0.173,�k,6.1,�L
2016/09/07,08:00,0.404,0.250,0.427,0.389,0.370,0.203,0.174,�k,5.7,�L
2016/09/07,08:10,0.402,0.247,0.431,0.393,0.368,0.202,0.173,�k,5.7,�L
2016/09/07,08:20,0.406,0.245,0.427,0.391,0.371,0.202,0.173,�k,5.2,�L
2016/09/07,08:30,0.404,0.247,0.426,0.387,0.368,0.201,0.173,�k,6.3,�L
2016/09/07,08:40,0.401,0.244,0.427,0.390,0.367,0.201,0.173,�k,6.7,�L
2016/09/07,08:50,0.404,0.244,0.424,0.391,0.370,0.200,0.171,�k,5.8,�L
2016/09/07,09:00,0.403,0.246,0.424,0.386,0.367,0.200,0.172,�k�k��,6.0,�L
2016/09/07,09:10,0.402,0.244,0.428,0.389,0.365,0.200,0.172,�k,6.6,�L
2016/09/07,09:20,0.402,0.242,0.419,0.386,0.367,0.199,0.170,�k,5.9,�L
2016/09/07,09:30,0.396,0.243,0.418,0.381,0.364,0.198,0.170,�k,6.2,�L
2016/09/07,09:40,0.398,0.242,0.422,0.384,0.362,0.199,0.170,�k,4.5,�L
2016/09/07,09:50,0.400,0.242,0.418,0.384,0.366,0.199,0.168,�k,3.9,�L
2016/09/07,10:00,0.397,0.241,0.415,0.381,0.364,0.198,0.169,�k,4.1,�L
2016/09/07,10:10,0.396,0.241,0.422,0.383,0.360,0.197,0.169,�k,3.9,��
2016/09/07,10:20,0.399,0.240,0.416,0.384,0.365,0.196,0.167,�k,3.5,��
2016/09/07,10:30,0.397,0.241,0.415,0.381,0.365,0.197,0.166,�k,2.3,��
2016/09/07,10:40,0.393,0.240,0.418,0.378,0.362,0.195,0.168,�k��,1.3,��
2016/09/07,10:50,0.395,0.237,0.419,0.383,0.359,0.195,0.167,�쓌,1.0,��
2016/09/07,11:00,0.399,0.236,0.415,0.383,0.362,0.195,0.166,�k��,1.6,��
2016/09/07,11:10,0.395,0.239,0.413,0.381,0.365,0.195,0.166,�k�k��,1.3,��
2016/09/07,11:20,0.393,0.238,0.416,0.378,0.364,0.194,0.166,�k�k��,1.3,�L
2016/09/07,11:30,0.392,0.237,0.420,0.381,0.363,0.195,0.165,�k��,2.8,��
2016/09/07,11:40,0.396,0.236,0.416,0.383,0.360,0.195,0.165,�k�k��,4.5,��
2016/09/07,11:50,0.398,0.238,0.413,0.382,0.361,0.196,0.165,�k�k��,3.5,��
2016/09/07,12:00,0.395,0.239,0.415,0.376,0.365,0.195,0.166,�k�k��,4.3,��
2016/09/07,12:10,0.398,0.239,0.419,0.381,0.364,0.194,0.166,�k�k��,3.2,��
2016/09/07,12:20,0.398,0.237,0.418,0.383,0.362,0.195,0.166,�k�k��,3.1,��
2016/09/07,12:30,0.396,0.236,0.415,0.381,0.362,0.195,0.165,�k,3.3,��
2016/09/07,12:40,0.391,0.236,0.411,0.380,0.359,0.195,0.165,�k�k��,2.4,��
2016/09/07,12:50,0.394,0.236,0.416,0.377,0.358,0.196,0.164,�k,2.6,��
2016/09/07,13:00,0.399,0.236,0.419,0.377,0.362,0.194,0.166,�k,3.9,��
2016/09/07,13:10,0.399,0.237,0.419,0.378,0.362,0.194,0.165,�k�k��,4.5,��
2016/09/07,13:20,0.396,0.235,0.416,0.378,0.361,0.195,0.164,�k��,3.7,��
2016/09/07,13:30,0.394,0.236,0.414,0.385,0.361,0.194,0.165,�k�k��,3.6,��
2016/09/07,13:40,0.392,0.237,0.414,0.385,0.361,0.196,0.164,�k�k��,3.4,��
2016/09/07,13:50,0.396,0.238,0.413,0.383,0.363,0.195,0.165,�k�k��,3.2,��
2016/09/07,14:00,0.399,0.240,0.415,0.381,0.362,0.194,0.165,�k��,3.7,��
2016/09/07,14:10,0.398,0.241,0.419,0.379,0.362,0.196,0.165,�k�k��,2.9,��
2016/09/07,14:20,0.396,0.240,0.421,0.379,0.363,0.196,0.165,�k�k��,3.6,��
2016/09/07,14:30,0.393,0.241,0.420,0.379,0.363,0.197,0.165,�k,3.5,��
2016/09/07,14:40,0.393,0.240,0.419,0.378,0.364,0.196,0.167,�k,4.7,��
2016/09/07,14:50,0.397,0.240,0.417,0.381,0.364,0.195,0.166,�k,5.3,��
2016/09/07,15:00,0.400,0.239,0.414,0.380,0.364,0.195,0.166,�k�k��,5.7,��
2016/09/07,15:10,0.398,0.239,0.415,0.383,0.364,0.196,0.168,�k�k��,5.8,��
2016/09/07,15:20,0.397,0.238,0.415,0.388,0.365,0.196,0.167,�k�k��,5.0,��
2016/09/07,15:30,0.394,0.239,0.413,0.385,0.363,0.196,0.166,�k,6.9,��
2016/09/07,15:40,0.398,0.240,0.420,0.382,0.364,0.196,0.166,�k,7.5,��
2016/09/07,15:50,0.399,0.240,0.422,0.381,0.368,0.197,0.165,�k,6.1,��
2016/09/07,16:00,0.398,0.239,0.419,0.384,0.367,0.196,0.167,�k,4.3,��
2016/09/07,16:10,0.395,0.241,0.416,0.385,0.364,0.196,0.167,�k,5.6,��
2016/09/07,16:20,0.400,0.241,0.419,0.384,0.364,0.196,0.166,�k,5.8,��
2016/09/07,16:30,0.400,0.240,0.423,0.382,0.368,0.196,0.166,�k,6.1,��
2016/09/07,16:40,0.398,0.238,0.418,0.384,0.366,0.196,0.165,�k,6.3,��
2016/09/07,16:50,0.396,0.239,0.416,0.387,0.365,0.197,0.168,�k,4.0,��
2016/09/07,17:00,0.399,0.241,0.418,0.383,0.362,0.196,0.166,�k�k��,3.7,��
2016/09/07,17:10,0.400,0.240,0.424,0.381,0.369,0.195,0.166,�k,5.0,��
2016/09/07,17:20,0.399,0.240,0.420,0.384,0.365,0.197,0.165,�k�k��,5.8,��
2016/09/07,17:30,0.395,0.240,0.416,0.386,0.363,0.196,0.168,�k�k��,5.5,��
2016/09/07,17:40,0.400,0.240,0.420,0.383,0.363,0.196,0.167,�k�k��,5.7,��
2016/09/07,17:50,0.399,0.240,0.422,0.383,0.367,0.196,0.166,�k�k��,7.2,��
2016/09/07,18:00,0.396,0.242,0.418,0.386,0.365,0.197,0.167,�k,6.6,��
2016/09/07,18:10,0.399,0.242,0.419,0.385,0.365,0.196,0.167,�k�k��,7.2,��
2016/09/07,18:20,0.401,0.240,0.423,0.383,0.369,0.196,0.166,�k�k��,7.3,��
2016/09/07,18:30,0.398,0.241,0.419,0.386,0.366,0.196,0.168,�k�k��,6.7,��
2016/09/07,18:40,0.396,0.241,0.417,0.386,0.364,0.196,0.168,�k�k��,6.9,��
2016/09/07,18:50,0.402,0.240,0.422,0.383,0.368,0.195,0.167,�k�k��,6.9,��
2016/09/07,19:00,0.400,0.242,0.421,0.386,0.365,0.197,0.167,�k,7.0,��
2016/09/07,19:10,0.397,0.242,0.418,0.386,0.364,0.196,0.167,�k,5.8,��
2016/09/07,19:20,0.399,0.240,0.422,0.383,0.367,0.195,0.167,�k�k��,6.0,��
2016/09/07,19:30,0.399,0.242,0.420,0.386,0.364,0.197,0.168,�k�k��,5.8,��
2016/09/07,19:40,0.397,0.241,0.421,0.384,0.365,0.195,0.167,�k�k��,4.6,��
2016/09/07,19:50,0.401,0.240,0.423,0.384,0.369,0.196,0.167,�k�k��,4.2,��
2016/09/07,20:00,0.399,0.242,0.417,0.386,0.364,0.196,0.168,�k�k��,4.0,��
2016/09/07,20:10,0.397,0.239,0.419,0.383,0.367,0.196,0.168,�k,3.6,��
2016/09/07,20:20,0.400,0.241,0.423,0.386,0.367,0.196,0.168,�k,4.8,��
2016/09/07,20:30,0.400,0.243,0.418,0.386,0.363,0.195,0.167,�k,4.9,��
2016/09/07,20:40,0.399,0.241,0.421,0.383,0.368,0.197,0.168,�k,5.6,��
2016/09/07,20:50,0.402,0.242,0.422,0.388,0.364,0.196,0.168,�k,5.0,��
2016/09/07,21:00,0.397,0.241,0.417,0.384,0.365,0.197,0.167,�k,3.3,��
2016/09/07,21:10,0.400,0.239,0.423,0.383,0.367,0.196,0.168,�k,4.5,��
2016/09/07,21:20,0.400,0.242,0.420,0.387,0.364,0.196,0.167,�k,3.5,��
2016/09/07,21:30,0.397,0.241,0.417,0.383,0.367,0.197,0.168,�k�k��,0.8,��
2016/09/07,21:40,0.401,0.242,0.424,0.386,0.366,0.196,0.168,�k,1.2,��
2016/09/07,21:50,0.400,0.241,0.420,0.385,0.365,0.197,0.166,�k,3.6,��
2016/09/07,22:00,0.396,0.241,0.418,0.383,0.368,0.198,0.168,�k,6.0,��
2016/09/07,22:10,0.403,0.243,0.423,0.387,0.366,0.196,0.167,�k,6.1,��
2016/09/07,22:20,0.399,0.242,0.418,0.384,0.365,0.196,0.167,�k,5.4,��
2016/09/07,22:30,0.399,0.241,0.421,0.383,0.367,0.197,0.167,�k,4.2,��
2016/09/07,22:40,0.401,0.242,0.422,0.386,0.364,0.196,0.167,�k,3.5,��
2016/09/07,22:50,0.399,0.240,0.417,0.382,0.367,0.197,0.168,�k,4.1,��
2016/09/07,23:00,0.399,0.241,0.423,0.387,0.365,0.195,0.168,�k,4.2,��
2016/09/07,23:10,0.400,0.242,0.419,0.385,0.363,0.197,0.167,�k,2.8,��
2016/09/07,23:20,0.398,0.240,0.418,0.383,0.367,0.196,0.168,�k,2.4,��
2016/09/07,23:30,0.399,0.242,0.424,0.387,0.365,0.196,0.168,�k,1.0,��
2016/09/07,23:40,0.401,0.241,0.420,0.384,0.365,0.197,0.168,�k,1.3,��
2016/09/07,23:50,0.398,0.240,0.418,0.386,0.367,0.196,0.168,�k,3.9,�L
